Gauley Below the Meadow [ USA-WVR ]

Edit Gauge

Current Conditions

Reading of "n/a" = frozen gauge or gauge error.
Reading Trend Type Updated
397 cfs 3 cfs/hr Flow 01h36m

Station Description

AW Gauge ID: 43451
Source: virtual
Station: 6192
Enabled yes
Description:Summersville Gauley + the Meadow.
Calculation:$flow=$gauge[8515]->getValue(GMETRIC_FLOW,120*60)+$gauge[51285]->getValue(GMETRIC_FLOW,60*120);
Data is courtesy of AW's Stream Team program. This data is calculated based on other gauges and information provided by the Stream Team. This data, and any river data, should be used with caution.

Information

Flow

Gauge History

Times listed in GMT 24h, ET and PT hours provided for convenience Graphs in GMT. Readings of "n/a" constitute a frozen gauge or gauge error.
Reading Updated (GMT) Eastern Pacific Comment
396.51 08/20/2014 05:11:28 Aug 20 01:11 am Aug 19 10:11 pm
393.11 08/20/2014 04:11:44 Aug 20 12:11 am Aug 19 9:11 pm
393.11 08/20/2014 03:12:00 Aug 19 11:12 pm Aug 19 8:12 pm
391.11 08/20/2014 01:12:32 Aug 19 09:12 pm Aug 19 6:12 pm
391.11 08/20/2014 00:12:48 Aug 19 08:12 pm Aug 19 5:12 pm
391.11 08/19/2014 23:13:04 Aug 19 07:13 pm Aug 19 4:13 pm
391.51 08/19/2014 22:11:12 Aug 19 06:11 pm Aug 19 3:11 pm
387.51 08/19/2014 21:11:28 Aug 19 05:11 pm Aug 19 2:11 pm
383.51 08/19/2014 20:11:44 Aug 19 04:11 pm Aug 19 1:11 pm
371.11 08/19/2014 19:12:00 Aug 19 03:12 pm Aug 19 12:12 pm
365.51 08/19/2014 18:12:16 Aug 19 02:12 pm Aug 19 11:12 am
350.11 08/19/2014 17:12:32 Aug 19 01:12 pm Aug 19 10:12 am
341.51 08/19/2014 16:12:48 Aug 19 12:12 pm Aug 19 9:12 am
341.51 08/19/2014 15:13:04 Aug 19 11:13 am Aug 19 8:13 am
329.11 08/19/2014 14:11:12 Aug 19 10:11 am Aug 19 7:11 am
318.51 08/19/2014 13:11:28 Aug 19 09:11 am Aug 19 6:11 am
306.51 08/19/2014 12:11:44 Aug 19 08:11 am Aug 19 5:11 am
295.11 08/19/2014 11:12:00 Aug 19 07:12 am Aug 19 4:12 am
294.51 08/19/2014 10:12:16 Aug 19 06:12 am Aug 19 3:12 am
290.51 08/19/2014 09:12:32 Aug 19 05:12 am Aug 19 2:12 am
287.51 08/19/2014 08:12:48 Aug 19 04:12 am Aug 19 1:12 am
287.51 08/19/2014 07:13:04 Aug 19 03:13 am Aug 19 12:13 am
285.51 08/19/2014 06:11:12 Aug 19 02:11 am Aug 18 11:11 pm
284.51 08/19/2014 05:11:28 Aug 19 01:11 am Aug 18 10:11 pm
282.51 08/19/2014 04:11:44 Aug 19 12:11 am Aug 18 9:11 pm
280.51 08/19/2014 03:12:00 Aug 18 11:12 pm Aug 18 8:12 pm
277.51 08/19/2014 02:12:16 Aug 18 10:12 pm Aug 18 7:12 pm
276.51 08/19/2014 00:12:48 Aug 18 08:12 pm Aug 18 5:12 pm
276.51 08/18/2014 23:13:04 Aug 18 07:13 pm Aug 18 4:13 pm
273.51 08/18/2014 22:11:12 Aug 18 06:11 pm Aug 18 3:11 pm
272.51 08/18/2014 21:11:28 Aug 18 05:11 pm Aug 18 2:11 pm
268.11 08/18/2014 20:11:44 Aug 18 04:11 pm Aug 18 1:11 pm
265.51 08/18/2014 19:12:00 Aug 18 03:12 pm Aug 18 12:12 pm
222.39 08/18/2014 18:12:16 Aug 18 02:12 pm Aug 18 11:12 am
123.38 08/18/2014 17:12:32 Aug 18 01:12 pm Aug 18 10:12 am
118.10 08/18/2014 16:12:48 Aug 18 12:12 pm Aug 18 9:12 am
118.10 08/18/2014 15:13:04 Aug 18 11:13 am Aug 18 8:13 am
118.10 08/18/2014 14:11:12 Aug 18 10:11 am Aug 18 7:11 am
120.22 08/18/2014 13:11:28 Aug 18 09:11 am Aug 18 6:11 am
121.38 08/18/2014 12:11:44 Aug 18 08:11 am Aug 18 5:11 am
115.10 08/18/2014 11:12:00 Aug 18 07:12 am Aug 18 4:12 am
117.22 08/18/2014 10:12:16 Aug 18 06:12 am Aug 18 3:12 am
115.10 08/18/2014 09:12:32 Aug 18 05:12 am Aug 18 2:12 am
116.10 08/18/2014 08:12:48 Aug 18 04:12 am Aug 18 1:12 am
116.10 08/18/2014 07:13:04 Aug 18 03:13 am Aug 18 12:13 am
116.10 08/18/2014 06:11:12 Aug 18 02:11 am Aug 17 11:11 pm
117.10 08/18/2014 05:11:28 Aug 18 01:11 am Aug 17 10:11 pm
117.10 08/18/2014 04:11:44 Aug 18 12:11 am Aug 17 9:11 pm
117.10 08/18/2014 03:12:00 Aug 17 11:12 pm Aug 17 8:12 pm
117.10 08/18/2014 02:12:16 Aug 17 10:12 pm Aug 17 7:12 pm
117.10 08/18/2014 00:12:48 Aug 17 08:12 pm Aug 17 5:12 pm
117.10 08/17/2014 23:13:04 Aug 17 07:13 pm Aug 17 4:13 pm
118.10 08/17/2014 22:11:12 Aug 17 06:11 pm Aug 17 3:11 pm
118.10 08/17/2014 21:11:28 Aug 17 05:11 pm Aug 17 2:11 pm
118.10 08/17/2014 20:11:44 Aug 17 04:11 pm Aug 17 1:11 pm
119.10 08/17/2014 19:12:00 Aug 17 03:12 pm Aug 17 12:12 pm
121.22 08/17/2014 17:12:32 Aug 17 01:12 pm Aug 17 10:12 am
119.10 08/17/2014 16:12:48 Aug 17 12:12 pm Aug 17 9:12 am
119.10 08/17/2014 15:13:04 Aug 17 11:13 am Aug 17 8:13 am
119.10 08/17/2014 14:11:12 Aug 17 10:11 am Aug 17 7:11 am
119.10 08/17/2014 13:11:28 Aug 17 09:11 am Aug 17 6:11 am
120.10 08/17/2014 12:11:44 Aug 17 08:11 am Aug 17 5:11 am
120.10 08/17/2014 11:12:00 Aug 17 07:12 am Aug 17 4:12 am
121.10 08/17/2014 10:12:16 Aug 17 06:12 am Aug 17 3:12 am
121.10 08/17/2014 09:12:32 Aug 17 05:12 am Aug 17 2:12 am
122.10 08/17/2014 08:12:48 Aug 17 04:12 am Aug 17 1:12 am
122.10 08/17/2014 07:13:04 Aug 17 03:13 am Aug 17 12:13 am
123.10 08/17/2014 04:11:44 Aug 17 12:11 am Aug 16 9:11 pm
125.22 08/17/2014 00:12:48 Aug 16 08:12 pm Aug 16 5:12 pm
127.22 08/16/2014 22:11:12 Aug 16 06:11 pm Aug 16 3:11 pm
126.10 08/16/2014 21:11:28 Aug 16 05:11 pm Aug 16 2:11 pm
129.22 08/16/2014 20:11:44 Aug 16 04:11 pm Aug 16 1:11 pm
127.10 08/16/2014 18:12:16 Aug 16 02:12 pm Aug 16 11:12 am
127.10 08/16/2014 17:12:32 Aug 16 01:12 pm Aug 16 10:12 am
129.22 08/16/2014 16:12:48 Aug 16 12:12 pm Aug 16 9:12 am
127.10 08/16/2014 15:13:04 Aug 16 11:13 am Aug 16 8:13 am
128.10 08/16/2014 14:11:12 Aug 16 10:11 am Aug 16 7:11 am
128.10 08/16/2014 13:11:28 Aug 16 09:11 am Aug 16 6:11 am
129.10 08/16/2014 12:11:44 Aug 16 08:11 am Aug 16 5:11 am
129.10 08/16/2014 11:12:00 Aug 16 07:12 am Aug 16 4:12 am
132.22 08/16/2014 10:12:16 Aug 16 06:12 am Aug 16 3:12 am
130.10 08/16/2014 09:12:32 Aug 16 05:12 am Aug 16 2:12 am
133.22 08/16/2014 08:12:48 Aug 16 04:12 am Aug 16 1:12 am
131.10 08/16/2014 07:13:04 Aug 16 03:13 am Aug 16 12:13 am
132.10 08/16/2014 06:11:12 Aug 16 02:11 am Aug 15 11:11 pm
134.22 08/16/2014 05:11:28 Aug 16 01:11 am Aug 15 10:11 pm
132.10 08/16/2014 04:11:44 Aug 16 12:11 am Aug 15 9:11 pm
135.22 08/16/2014 03:12:00 Aug 15 11:12 pm Aug 15 8:12 pm
133.10 08/16/2014 01:12:32 Aug 15 09:12 pm Aug 15 6:12 pm
133.10 08/16/2014 00:12:48 Aug 15 08:12 pm Aug 15 5:12 pm
134.10 08/15/2014 23:13:04 Aug 15 07:13 pm Aug 15 4:13 pm
136.10 08/15/2014 22:11:12 Aug 15 06:11 pm Aug 15 3:11 pm
137.10 08/15/2014 21:11:28 Aug 15 05:11 pm Aug 15 2:11 pm
140.22 08/15/2014 20:11:44 Aug 15 04:11 pm Aug 15 1:11 pm
141.22 08/15/2014 19:12:00 Aug 15 03:12 pm Aug 15 12:12 pm
141.22 08/15/2014 18:12:16 Aug 15 02:12 pm Aug 15 11:12 am
140.10 08/15/2014 17:12:32 Aug 15 01:12 pm Aug 15 10:12 am
141.10 08/15/2014 16:12:48 Aug 15 12:12 pm Aug 15 9:12 am
143.22 08/15/2014 15:13:04 Aug 15 11:13 am Aug 15 8:13 am
146.22 08/15/2014 14:11:12 Aug 15 10:11 am Aug 15 7:11 am
147.22 08/15/2014 13:11:28 Aug 15 09:11 am Aug 15 6:11 am
149.22 08/15/2014 12:11:44 Aug 15 08:11 am Aug 15 5:11 am
151.38 08/15/2014 11:12:00 Aug 15 07:12 am Aug 15 4:12 am
150.22 08/15/2014 10:12:16 Aug 15 06:12 am Aug 15 3:12 am
151.22 08/15/2014 09:12:32 Aug 15 05:12 am Aug 15 2:12 am
153.22 08/15/2014 08:12:48 Aug 15 04:12 am Aug 15 1:12 am
151.10 08/15/2014 07:13:04 Aug 15 03:13 am Aug 15 12:13 am
154.22 08/15/2014 06:11:12 Aug 15 02:11 am Aug 14 11:11 pm
156.22 08/15/2014 05:11:28 Aug 15 01:11 am Aug 14 10:11 pm
157.22 08/15/2014 04:11:44 Aug 15 12:11 am Aug 14 9:11 pm
157.22 08/15/2014 03:12:00 Aug 14 11:12 pm Aug 14 8:12 pm
163.22 08/15/2014 02:12:16 Aug 14 10:12 pm Aug 14 7:12 pm
163.22 08/15/2014 00:12:48 Aug 14 08:12 pm Aug 14 5:12 pm
165.22 08/14/2014 23:13:04 Aug 14 07:13 pm Aug 14 4:13 pm
167.10 08/14/2014 22:11:12 Aug 14 06:11 pm Aug 14 3:11 pm
169.10 08/14/2014 21:11:28 Aug 14 05:11 pm Aug 14 2:11 pm
169.10 08/14/2014 20:11:44 Aug 14 04:11 pm Aug 14 1:11 pm
171.22 08/14/2014 19:12:00 Aug 14 03:12 pm Aug 14 12:12 pm
172.22 08/14/2014 18:12:16 Aug 14 02:12 pm Aug 14 11:12 am
172.10 08/14/2014 17:12:32 Aug 14 01:12 pm Aug 14 10:12 am
177.22 08/14/2014 16:12:48 Aug 14 12:12 pm Aug 14 9:12 am
175.10 08/14/2014 15:13:04 Aug 14 11:13 am Aug 14 8:13 am
179.10 08/14/2014 14:11:12 Aug 14 10:11 am Aug 14 7:11 am
182.22 08/14/2014 13:11:28 Aug 14 09:11 am Aug 14 6:11 am
182.10 08/14/2014 12:11:44 Aug 14 08:11 am Aug 14 5:11 am
184.22 08/14/2014 11:12:00 Aug 14 07:12 am Aug 14 4:12 am
184.10 08/14/2014 10:12:16 Aug 14 06:12 am Aug 14 3:12 am
186.22 08/14/2014 09:12:32 Aug 14 05:12 am Aug 14 2:12 am
186.22 08/14/2014 08:12:48 Aug 14 04:12 am Aug 14 1:12 am
186.22 08/14/2014 07:13:04 Aug 14 03:13 am Aug 14 12:13 am
184.22 08/14/2014 06:11:12 Aug 14 02:11 am Aug 13 11:11 pm
181.22 08/14/2014 05:11:28 Aug 14 01:11 am Aug 13 10:11 pm
175.10 08/14/2014 04:11:44 Aug 14 12:11 am Aug 13 9:11 pm
174.22 08/14/2014 03:12:00 Aug 13 11:12 pm Aug 13 8:12 pm
169.22 08/14/2014 02:12:16 Aug 13 10:12 pm Aug 13 7:12 pm
165.22 08/14/2014 01:12:32 Aug 13 09:12 pm Aug 13 6:12 pm
165.22 08/14/2014 00:12:48 Aug 13 08:12 pm Aug 13 5:12 pm
162.22 08/13/2014 23:13:04 Aug 13 07:13 pm Aug 13 4:13 pm
154.22 08/13/2014 22:11:12 Aug 13 06:11 pm Aug 13 3:11 pm
149.10 08/13/2014 21:11:28 Aug 13 05:11 pm Aug 13 2:11 pm
149.22 08/13/2014 20:11:44 Aug 13 04:11 pm Aug 13 1:11 pm
144.10 08/13/2014 19:12:00 Aug 13 03:12 pm Aug 13 12:12 pm
142.22 08/13/2014 18:12:16 Aug 13 02:12 pm Aug 13 11:12 am
138.10 08/13/2014 17:12:32 Aug 13 01:12 pm Aug 13 10:12 am
138.22 08/13/2014 16:12:48 Aug 13 12:12 pm Aug 13 9:12 am
136.10 08/13/2014 15:13:04 Aug 13 11:13 am Aug 13 8:13 am
133.22 08/13/2014 14:11:12 Aug 13 10:11 am Aug 13 7:11 am
131.22 08/13/2014 13:11:28 Aug 13 09:11 am Aug 13 6:11 am
127.10 08/13/2014 12:11:44 Aug 13 08:11 am Aug 13 5:11 am
125.10 08/13/2014 11:12:00 Aug 13 07:12 am Aug 13 4:12 am
123.10 08/13/2014 10:12:16 Aug 13 06:12 am Aug 13 3:12 am
123.10 08/13/2014 09:12:32 Aug 13 05:12 am Aug 13 2:12 am
122.10 08/13/2014 08:12:48 Aug 13 04:12 am Aug 13 1:12 am
122.10 08/13/2014 07:13:04 Aug 13 03:13 am Aug 13 12:13 am
121.10 08/13/2014 06:11:12 Aug 13 02:11 am Aug 12 11:11 pm
121.10 08/13/2014 05:11:28 Aug 13 01:11 am Aug 12 10:11 pm
121.10 08/13/2014 04:11:44 Aug 13 12:11 am Aug 12 9:11 pm
120.10 08/13/2014 02:12:16 Aug 12 10:12 pm Aug 12 7:12 pm
119.10 08/13/2014 01:12:32 Aug 12 09:12 pm Aug 12 6:12 pm
121.22 08/13/2014 00:12:48 Aug 12 08:12 pm Aug 12 5:12 pm
122.22 08/12/2014 23:13:04 Aug 12 07:13 pm Aug 12 4:13 pm
113.10 08/12/2014 22:11:12 Aug 12 06:11 pm Aug 12 3:11 pm
116.10 08/12/2014 21:11:28 Aug 12 05:11 pm Aug 12 2:11 pm
115.22 08/12/2014 20:11:44 Aug 12 04:11 pm Aug 12 1:11 pm
114.22 08/12/2014 18:12:16 Aug 12 02:12 pm Aug 12 11:12 am
112.10 08/12/2014 17:12:32 Aug 12 01:12 pm Aug 12 10:12 am
113.22 08/12/2014 16:12:48 Aug 12 12:12 pm Aug 12 9:12 am
111.10 08/12/2014 15:13:04 Aug 12 11:13 am Aug 12 8:13 am
110.10 08/12/2014 14:11:12 Aug 12 10:11 am Aug 12 7:11 am
112.22 08/12/2014 13:11:28 Aug 12 09:11 am Aug 12 6:11 am
110.10 08/12/2014 12:11:44 Aug 12 08:11 am Aug 12 5:11 am
112.22 08/12/2014 11:12:00 Aug 12 07:12 am Aug 12 4:12 am
111.22 08/12/2014 10:12:16 Aug 12 06:12 am Aug 12 3:12 am
109.10 08/12/2014 09:12:32 Aug 12 05:12 am Aug 12 2:12 am
110.22 08/12/2014 08:12:48 Aug 12 04:12 am Aug 12 1:12 am
108.10 08/12/2014 07:13:04 Aug 12 03:13 am Aug 12 12:13 am
108.10 08/12/2014 06:11:12 Aug 12 02:11 am Aug 11 11:11 pm
107.10 08/12/2014 05:11:28 Aug 12 01:11 am Aug 11 10:11 pm
107.10 08/12/2014 04:11:44 Aug 12 12:11 am Aug 11 9:11 pm
109.22 08/12/2014 03:12:00 Aug 11 11:12 pm Aug 11 8:12 pm
108.22 08/12/2014 02:12:16 Aug 11 10:12 pm Aug 11 7:12 pm
108.22 08/12/2014 01:12:32 Aug 11 09:12 pm Aug 11 6:12 pm
106.10 08/12/2014 00:12:48 Aug 11 08:12 pm Aug 11 5:12 pm
107.10 08/11/2014 23:13:04 Aug 11 07:13 pm Aug 11 4:13 pm
106.10 08/11/2014 22:11:12 Aug 11 06:11 pm Aug 11 3:11 pm
106.10 08/11/2014 21:11:28 Aug 11 05:11 pm Aug 11 2:11 pm
108.22 08/11/2014 20:11:44 Aug 11 04:11 pm Aug 11 1:11 pm
108.22 08/11/2014 18:12:16 Aug 11 02:12 pm Aug 11 11:12 am
108.22 08/11/2014 17:12:32 Aug 11 01:12 pm Aug 11 10:12 am
108.22 08/11/2014 16:12:48 Aug 11 12:12 pm Aug 11 9:12 am
108.22 08/11/2014 15:13:04 Aug 11 11:13 am Aug 11 8:13 am
107.22 08/11/2014 14:11:12 Aug 11 10:11 am Aug 11 7:11 am
105.10 08/11/2014 13:11:28 Aug 11 09:11 am Aug 11 6:11 am
108.22 08/11/2014 12:11:44 Aug 11 08:11 am Aug 11 5:11 am
106.10 08/11/2014 11:12:00 Aug 11 07:12 am Aug 11 4:12 am
105.10 08/11/2014 10:12:16 Aug 11 06:12 am Aug 11 3:12 am
107.22 08/11/2014 09:12:32 Aug 11 05:12 am Aug 11 2:12 am
107.22 08/11/2014 08:12:48 Aug 11 04:12 am Aug 11 1:12 am
105.10 08/11/2014 07:13:04 Aug 11 03:13 am Aug 11 12:13 am
108.22 08/11/2014 06:11:12 Aug 11 02:11 am Aug 10 11:11 pm
106.10 08/11/2014 05:11:28 Aug 11 01:11 am Aug 10 10:11 pm
105.10 08/11/2014 04:11:44 Aug 11 12:11 am Aug 10 9:11 pm
105.10 08/11/2014 03:12:00 Aug 10 11:12 pm Aug 10 8:12 pm
106.10 08/11/2014 02:12:16 Aug 10 10:12 pm Aug 10 7:12 pm
106.10 08/11/2014 00:12:48 Aug 10 08:12 pm Aug 10 5:12 pm
106.10 08/10/2014 23:13:04 Aug 10 07:13 pm Aug 10 4:13 pm
106.10 08/10/2014 22:11:12 Aug 10 06:11 pm Aug 10 3:11 pm
108.22 08/10/2014 21:11:28 Aug 10 05:11 pm Aug 10 2:11 pm
108.22 08/10/2014 20:11:44 Aug 10 04:11 pm Aug 10 1:11 pm
106.10 08/10/2014 19:12:00 Aug 10 03:12 pm Aug 10 12:12 pm
106.10 08/10/2014 18:12:16 Aug 10 02:12 pm Aug 10 11:12 am
108.22 08/10/2014 17:12:32 Aug 10 01:12 pm Aug 10 10:12 am
106.10 08/10/2014 16:12:48 Aug 10 12:12 pm Aug 10 9:12 am
108.22 08/10/2014 15:13:04 Aug 10 11:13 am Aug 10 8:13 am
108.22 08/10/2014 14:11:12 Aug 10 10:11 am Aug 10 7:11 am
108.22 08/10/2014 13:11:28 Aug 10 09:11 am Aug 10 6:11 am
108.22 08/10/2014 12:11:44 Aug 10 08:11 am Aug 10 5:11 am
108.22 08/10/2014 11:12:00 Aug 10 07:12 am Aug 10 4:12 am
106.10 08/10/2014 10:12:16 Aug 10 06:12 am Aug 10 3:12 am
108.22 08/10/2014 09:12:32 Aug 10 05:12 am Aug 10 2:12 am
106.10 08/10/2014 08:12:48 Aug 10 04:12 am Aug 10 1:12 am
106.10 08/10/2014 07:13:04 Aug 10 03:13 am Aug 10 12:13 am
106.10 08/10/2014 06:11:12 Aug 10 02:11 am Aug 9 11:11 pm
108.22 08/10/2014 05:11:28 Aug 10 01:11 am Aug 9 10:11 pm
108.22 08/10/2014 04:11:44 Aug 10 12:11 am Aug 9 9:11 pm
108.22 08/10/2014 03:12:00 Aug 9 11:12 pm Aug 9 8:12 pm
108.22 08/10/2014 01:12:32 Aug 9 09:12 pm Aug 9 6:12 pm
108.22 08/10/2014 00:12:48 Aug 9 08:12 pm Aug 9 5:12 pm
108.22 08/09/2014 23:13:04 Aug 9 07:13 pm Aug 9 4:13 pm
110.38 08/09/2014 22:11:12 Aug 9 06:11 pm Aug 9 3:11 pm
112.56 08/09/2014 21:11:28 Aug 9 05:11 pm Aug 9 2:11 pm
110.38 08/09/2014 20:11:44 Aug 9 04:11 pm Aug 9 1:11 pm
112.56 08/09/2014 19:12:00 Aug 9 03:12 pm Aug 9 12:12 pm
112.56 08/09/2014 18:12:16 Aug 9 02:12 pm Aug 9 11:12 am
113.56 08/09/2014 17:12:32 Aug 9 01:12 pm Aug 9 10:12 am
113.56 08/09/2014 16:12:48 Aug 9 12:12 pm Aug 9 9:12 am
113.56 08/09/2014 15:13:04 Aug 9 11:13 am Aug 9 8:13 am
114.56 08/09/2014 14:11:12 Aug 9 10:11 am Aug 9 7:11 am
112.38 08/09/2014 13:11:28 Aug 9 09:11 am Aug 9 6:11 am
114.56 08/09/2014 12:11:44 Aug 9 08:11 am Aug 9 5:11 am
112.38 08/09/2014 11:12:00 Aug 9 07:12 am Aug 9 4:12 am
114.56 08/09/2014 10:12:16 Aug 9 06:12 am Aug 9 3:12 am
112.38 08/09/2014 09:12:32 Aug 9 05:12 am Aug 9 2:12 am
114.56 08/09/2014 08:12:48 Aug 9 04:12 am Aug 9 1:12 am
112.38 08/09/2014 07:13:04 Aug 9 03:13 am Aug 9 12:13 am
112.38 08/09/2014 06:11:12 Aug 9 02:11 am Aug 8 11:11 pm
114.56 08/09/2014 05:11:28 Aug 9 01:11 am Aug 8 10:11 pm
112.38 08/09/2014 04:11:44 Aug 9 12:11 am Aug 8 9:11 pm
114.56 08/09/2014 03:12:00 Aug 8 11:12 pm Aug 8 8:12 pm
112.38 08/09/2014 01:12:32 Aug 8 09:12 pm Aug 8 6:12 pm
112.38 08/09/2014 00:12:48 Aug 8 08:12 pm Aug 8 5:12 pm
112.38 08/08/2014 23:13:04 Aug 8 07:13 pm Aug 8 4:13 pm
111.38 08/08/2014 22:11:12 Aug 8 06:11 pm Aug 8 3:11 pm
113.56 08/08/2014 21:11:28 Aug 8 05:11 pm Aug 8 2:11 pm
113.56 08/08/2014 20:11:44 Aug 8 04:11 pm Aug 8 1:11 pm
113.56 08/08/2014 19:12:00 Aug 8 03:12 pm Aug 8 12:12 pm
111.38 08/08/2014 18:12:16 Aug 8 02:12 pm Aug 8 11:12 am
111.38 08/08/2014 17:12:32 Aug 8 01:12 pm Aug 8 10:12 am
113.56 08/08/2014 16:12:48 Aug 8 12:12 pm Aug 8 9:12 am
111.38 08/08/2014 15:13:04 Aug 8 11:13 am Aug 8 8:13 am
112.38 08/08/2014 14:11:12 Aug 8 10:11 am Aug 8 7:11 am
112.38 08/08/2014 13:11:28 Aug 8 09:11 am Aug 8 6:11 am
112.38 08/08/2014 12:11:44 Aug 8 08:11 am Aug 8 5:11 am
112.38 08/08/2014 11:12:00 Aug 8 07:12 am Aug 8 4:12 am
112.38 08/08/2014 10:12:16 Aug 8 06:12 am Aug 8 3:12 am
112.38 08/08/2014 09:12:32 Aug 8 05:12 am Aug 8 2:12 am
112.38 08/08/2014 08:12:48 Aug 8 04:12 am Aug 8 1:12 am
114.56 08/08/2014 07:13:04 Aug 8 03:13 am Aug 8 12:13 am
115.56 08/08/2014 06:11:12 Aug 8 02:11 am Aug 7 11:11 pm
115.56 08/08/2014 05:11:28 Aug 8 01:11 am Aug 7 10:11 pm
113.38 08/08/2014 04:11:44 Aug 8 12:11 am Aug 7 9:11 pm
113.38 08/08/2014 02:12:16 Aug 7 10:12 pm Aug 7 7:12 pm
113.38 08/08/2014 01:12:32 Aug 7 09:12 pm Aug 7 6:12 pm
120.04 08/08/2014 00:12:48 Aug 7 08:12 pm Aug 7 5:12 pm
121.04 08/07/2014 23:13:04 Aug 7 07:13 pm Aug 7 4:13 pm
118.79 08/07/2014 22:11:12 Aug 7 06:11 pm Aug 7 3:11 pm
121.04 08/07/2014 21:11:28 Aug 7 05:11 pm Aug 7 2:11 pm
118.79 08/07/2014 20:11:44 Aug 7 04:11 pm Aug 7 1:11 pm
118.79 08/07/2014 19:12:00 Aug 7 03:12 pm Aug 7 12:12 pm
121.04 08/07/2014 18:12:16 Aug 7 02:12 pm Aug 7 11:12 am
118.79 08/07/2014 17:12:32 Aug 7 01:12 pm Aug 7 10:12 am
118.79 08/07/2014 16:12:48 Aug 7 12:12 pm Aug 7 9:12 am
121.04 08/07/2014 15:13:04 Aug 7 11:13 am Aug 7 8:13 am
122.04 08/07/2014 14:11:12 Aug 7 10:11 am Aug 7 7:11 am
122.04 08/07/2014 13:11:28 Aug 7 09:11 am Aug 7 6:11 am
122.04 08/07/2014 12:11:44 Aug 7 08:11 am Aug 7 5:11 am
122.04 08/07/2014 11:12:00 Aug 7 07:12 am Aug 7 4:12 am
122.04 08/07/2014 10:12:16 Aug 7 06:12 am Aug 7 3:12 am
119.79 08/07/2014 09:12:32 Aug 7 05:12 am Aug 7 2:12 am
123.04 08/07/2014 08:12:48 Aug 7 04:12 am Aug 7 1:12 am
120.79 08/07/2014 07:13:04 Aug 7 03:13 am Aug 7 12:13 am
123.04 08/07/2014 06:11:12 Aug 7 02:11 am Aug 6 11:11 pm
120.79 08/07/2014 05:11:28 Aug 7 01:11 am Aug 6 10:11 pm
142.33 08/07/2014 04:11:44 Aug 7 12:11 am Aug 6 9:11 pm
142.33 08/07/2014 03:12:00 Aug 6 11:12 pm Aug 6 8:12 pm
261.93 08/07/2014 01:12:32 Aug 6 09:12 pm Aug 6 6:12 pm
262.93 08/07/2014 00:12:48 Aug 6 08:12 pm Aug 6 5:12 pm
262.93 08/06/2014 23:13:04 Aug 6 07:13 pm Aug 6 4:13 pm
262.93 08/06/2014 22:11:12 Aug 6 06:11 pm Aug 6 3:11 pm
262.93 08/06/2014 21:11:28 Aug 6 05:11 pm Aug 6 2:11 pm

Report - Reports of Related Gauges

Reports give the public a chance to report on river conditions throughout the country as well as log the history of a river.

Reports

When River/Gauge Subject Level Reporter
5y86d18h44m Gauley Below the Meadow [WV] Account of 05/26/09 600 cfs Ryan Groth

Linked Reaches

Click a heading to sort. Hover over a heading for help.
River Name/Section Class Level running? Updated
Gauley [WV] 8 (Middle). Mason Branch to Bucklick Branch III+(IV) 397 cfs
+ 3 cfs/hr
L9-
Below Recom.
01h36m
Gauley [WV] 9 (Lower). Bucklick Branch to Swiss III-IV(V) 276 cfs
0 cfs/hr
L0-
Below Recom.
00h49m

Associated Gauges

Disclaimer Data Sources

Gauley at Summersville (cfs) (AW#8515)

229 cfs 01h21m

MEADOW RIVER AT NALLEN, WV (AW#51285)

168 cfs 00h34m

MEADOW RIVER AT NALLEN, WV (AW#51285)

4.10 ft 00h34m